Showing default

TJS-9, 50574

Orbit data source: Space-Track

TJS-9, 50574 is a payload satellite owned by CASC (CN) in GEO that was launched on Wed, 29 Dec 2021 UTC via a CHANG ZHENG 3B launch vehicle from the Xichang Space Center, China (XSC). Payload-class satellites include a variety of spacecraft equipped with specific instruments for various scientific and technological missions. These include communications satellites like Starlink; space stations such as the ISS; scientific satellites like the Hubble; Earth observation satellites from companies like Planet Labs, Umbra, and HawkEye 360; GPS; miniature CubeSats for education and research; and military/defense satellites.

Not visible in the next 10 days
Identifier
50574, 2021-135A
Orbit
GEO
Country
Flag of CNCN / PRC
Related business
Manufacturer
CAST
Mission
Operational Defense Sigint
Bus & Motor
DFH-4?, DFH-4 LAE
Mass
~4,000 kg wet, ~2,500 kg dry
Launch date (UTC)
2021-12-29 (5 years ago)
Launch vehicle
CHANG ZHENG 3B
Launch site
Xichang Space Center, China (XSC)
Object type
Payload
Rocket body
Debris
Shape & HBR
Box + 2 Pan + 1 Dish, 16.0 m
Radar Cross Section
35.403 m², Large (>1 m²)

Expand to show TLE details & history
Last TLE update: 10 hours ago

TLE from 10 hours ago
0 TJS-9
1 50574U 21135A   26195.22978950 -.00000305  00000-0  00000+0 0  9996
2 50574   0.0446 104.0094 0002205 324.9548  83.0940  1.00272759 16700
Epoch: 2026-07-14T05:30Z
TLE epoch observation values (Epoch: 2026-07-14T05:30:53.812Z)
Latitude
0.05147°
Longitude
137.27251°
Altitude
35,784.644 km
Speed
3.075 km/s
True Right ascension
10h 08m 23s
True Declination
0° 03' 05"
Sunlit
Object was in daylight at epoch
Visualization orbit readout
Latitude
Unknown
Longitude
Unknown
Altitude
Unknown
Speed
Unknown
Apparent Right ascension
Unknown
Apparent Declination
Unknown
Sunlit
N/A
Visualization observer readout
Local Sidereal Time
04:19:16
Azimuth
Unknown
Elevation
Unknown
Doppler factor
Unknown
Orbital elements
Apogee altitude
35,796.69 km
Perigee altitude
35,778.095 km
Semi-major axis
42,165.529 km
Eccentricity
0.00022
Inclination
0.0446°
RAAN
104.0094°
Arg. of periapsis
324.9548°
True anomaly
83.11908°
Mean anomaly
83.094°
Eccentric anomaly
83.10654°
Mean motion
0.25067 °/min
Orbital period
1,436.14 mins
BSTAR
0
Loading maneuver chart data...
Computing Atmospheric mass density...
Loading historical data...
Loading historical data...
Loading historical data...
Loading historical data...
Loading historical data...
Loading historical data...
Loading historical data...
Other satellites on launch #135 in the year 2021 (2021-12-29 UTC)

Documentation

Showing up to 5 results
|